Back to catalog

STARLINK-36769

AliveCommunicationsVLEO
NORAD 67871·PAYLOAD·🇺🇸 United States

Launched Feb 20, 2026 from Vandenberg Space Force Base

Loading…

Next Passes (next 24 hours)

TLE

FreshSource: CelesTrak SupGP

Epoch: Sep 14, 2026, 15:53 UTC

1 67871C 26034X   26257.66229167 -.00163590  00000+0 -48327-2 0  2573
2 67871  53.1595  45.1349 0001237  81.4082  48.6433 15.34475418    12

Track STARLINK-36769 in real time with AllMySat

Download on the App Store